Starlink 36045

operational
NORAD ID: 66811 Int'l Des: 2025-278 Owner: SPXS Country: US Constellation: starlink
LEOCIRCULAR

About Starlink 36045

Description loading...

Live Position

Loading 3D Globe...

Upcoming Passes

Altitude History

Altitude vs Time

uPlot chart will show altitude changes over time

Two-Line Element Set

1 66811U 25278W 26047.53837667 .00028848 00000-0 10547-2 0 9999
2 66811 42.9930 233.8711 0000154 301.2396 58.8441 15.27549885 11972
Epoch: Feb 16, 2026 • Age: 11 hours

Current Status

Altitude 485.8 km
Velocity 7.63 km/s
Sub-Earth Point 41.10°N, 149.32°E
Launch Date Dec 1, 2025
Age 0.2 years
Type internet

Technical Details

Classification Payload
Mass 575.00 kg
Dry Mass 530.00 kg
Total Mass 575.00 kg
Length 0.30 m
Diameter 4.10 m
Span 29.00 m
Shape Box + pan
Manufacturer SPXS
Bus Type Starlink V2MO
Phase Status In Orbit
Owner/State SPXS/US

Large Constellations

Loading constellations...